• In Hungary
  • List of Countries
  • For 7 days
  • Water Temperature
  • Satellite Maps
  • Weather Map
  • News
  • Weather Widgets
  • user-avatar
    Login

    Hourly Weather Dendermonde

    Today, 19 September, Wednesday

    Time Temperature Precipitation Wind Pressure Humidity
    00:00 +17°C° 0 mm 2 mps 761 mmHg 87%
    01:00 +17°C° 0 mm 2 mps 761 mmHg 88%
    02:00 +16°C° 0 mm 3 mps 761 mmHg 88%
    03:00 +16°C° 0 mm 3 mps 761 mmHg 88%
    04:00 +16°C° 0 mm 3 mps 761 mmHg 89%
    05:00 +15°C° 0 mm 4 mps 761 mmHg 89%
    06:00 +15°C° 0 mm 4 mps 761 mmHg 90%
    07:00 +17°C° 0 mm 5 mps 761 mmHg 83%
    08:00 +20°C° 0 mm 5 mps 762 mmHg 76%
    09:00 +21°C° 0 mm 6 mps 762 mmHg 69%
    10:00 +22°C° 0 mm 6 mps 762 mmHg 65%
    11:00 +23°C° 0 mm 7 mps 762 mmHg 60%
    12:00 +24°C° 0 mm 7 mps 762 mmHg 56%
    13:00 +24°C° 0 mm 7 mps 761 mmHg 56%
    14:00 +24°C° 0 mm 6 mps 761 mmHg 56%
    15:00 +24°C° 0 mm 6 mps 761 mmHg 56%
    16:00 +23°C° 0 mm 5 mps 761 mmHg 61%
    17:00 +22°C° 0 mm 4 mps 761 mmHg 66%
    18:00 +21°C° 0 mm 4 mps 762 mmHg 70%
    19:00 +20°C° 0 mm 4 mps 762 mmHg 73%
    20:00 +19°C° 0 mm 4 mps 762 mmHg 75%
    21:00 +19°C° 0 mm 4 mps 762 mmHg 78%
    22:00 +18°C° 0 mm 4 mps 762 mmHg 80%
    23:00 +18°C° 0 mm 4 mps 763 mmHg 83%

    Tomorrow, 20 September, Thursday

    Time Temperature Precipitation Wind Pressure Humidity
    00:00 +18°C° 0 mm 4 mps 763 mmHg 85%
    01:00 +17°C° 0 mm 4 mps 763 mmHg 88%
    02:00 +17°C° 0 mm 4 mps 763 mmHg 90%
    03:00 +16°C° 0 mm 3 mps 763 mmHg 92%
    04:00 +15°C° 0 mm 4 mps 762 mmHg 92%
    05:00 +15°C° 0 mm 4 mps 762 mmHg 92%
    06:00 +15°C° 0 mm 4 mps 762 mmHg 93%
    07:00 +17°C° 0 mm 5 mps 762 mmHg 85%
    08:00 +19°C° 0 mm 6 mps 762 mmHg 78%
    09:00 +21°C° 0 mm 6 mps 762 mmHg 71%
    10:00 +22°C° 0 mm 6 mps 762 mmHg 67%
    11:00 +23°C° 0 mm 7 mps 761 mmHg 62%
    12:00 +24°C° 0 mm 7 mps 761 mmHg 58%
    13:00 +26°C° 0 mm 6 mps 761 mmHg 57%
    14:00 +26°C° 0 mm 6 mps 760 mmHg 56%
    15:00 +26°C° 0 mm 6 mps 760 mmHg 55%
    16:00 +25°C° 0 mm 5 mps 759 mmHg 60%
    17:00 +22°C° 0 mm 4 mps 759 mmHg 64%
    18:00 +21°C° 0 mm 3 mps 758 mmHg 69%
    19:00 +21°C° 0 mm 4 mps 757 mmHg 66%
    20:00 +21°C° 0 mm 5 mps 757 mmHg 63%
    21:00 +21°C° 0 mm 5 mps 757 mmHg 60%
    22:00 +21°C° 0 mm 6 mps 756 mmHg 58%
    23:00 +21°C° 0 mm 6 mps 755 mmHg 56%

    Day after tomorrow, 21 September, Friday

    Time Temperature Precipitation Wind Pressure Humidity
    00:00 +22°C° 0 mm 7 mps 755 mmHg 55%
    01:00 +21°C° 0 mm 7 mps 754 mmHg 57%
    02:00 +21°C° 0 mm 8 mps 753 mmHg 58%
    03:00 +21°C° 0 mm 9 mps 752 mmHg 60%
    04:00 +19°C° 0.8 mm 9 mps 753 mmHg 67%
    05:00 +18°C° 0.8 mm 9 mps 753 mmHg 73%
    06:00 +18°C° 0.8 mm 10 mps 753 mmHg 80%
    07:00 +17°C° 0.3 mm 9 mps 754 mmHg 75%
    08:00 +16°C° 0.3 mm 8 mps 755 mmHg 70%
    09:00 +15°C° 0.3 mm 8 mps 756 mmHg 65%
    10:00 +15°C° 0 mm 8 mps 757 mmHg 59%
    11:00 +16°C° 0 mm 8 mps 758 mmHg 52%
    12:00 +17°C° 0 mm 8 mps 758 mmHg 45%
    13:00 +17°C° 0 mm 9 mps 759 mmHg 45%
    14:00 +17°C° 0 mm 9 mps 759 mmHg 45%
    15:00 +17°C° 0 mm 9 mps 759 mmHg 45%
    16:00 +16°C° 0 mm 8 mps 760 mmHg 49%
    17:00 +15°C° 0 mm 7 mps 760 mmHg 52%
    18:00 +14°C° 0 mm 6 mps 761 mmHg 55%
    19:00 +14°C° 0 mm 6 mps 761 mmHg 58%
    20:00 +13°C° 0 mm 6 mps 762 mmHg 60%
    21:00 +13°C° 0 mm 6 mps 763 mmHg 62%
    22:00 +12°C° 0 mm 5 mps 763 mmHg 64%
    23:00 +12°C° 0 mm 5 mps 763 mmHg 66%

    22 September, Saturday

    Time Temperature Precipitation Wind Pressure Humidity
    00:00 +12°C° 0 mm 5 mps 764 mmHg 68%
    01:00 +10°C° 0 mm 5 mps 764 mmHg 70%
    02:00 +10°C° 0 mm 5 mps 764 mmHg 72%
    03:00 +11°C° 0 mm 4 mps 765 mmHg 75%
    04:00 +10°C° 0 mm 4 mps 765 mmHg 76%
    05:00 +10°C° 0 mm 4 mps 765 mmHg 78%
    06:00 +10°C° 0 mm 4 mps 766 mmHg 80%
    07:00 +10°C° 0.1 mm 5 mps 766 mmHg 73%
    08:00 +13°C° 0.1 mm 5 mps 766 mmHg 67%
    09:00 +15°C° 0.1 mm 6 mps 767 mmHg 60%
    10:00 +15°C° 0.2 mm 6 mps 767 mmHg 58%
    11:00 +16°C° 0.2 mm 6 mps 767 mmHg 56%
    12:00 +16°C° 0.2 mm 6 mps 767 mmHg 54%
    13:00 +16°C° 0 mm 5 mps 767 mmHg 52%
    14:00 +17°C° 0 mm 5 mps 767 mmHg 50%
    15:00 +17°C° 0 mm 5 mps 767 mmHg 49%
    16:00 +15°C° 0 mm 4 mps 767 mmHg 53%
    17:00 +14°C° 0 mm 3 mps 767 mmHg 58%
    18:00 +13°C° 0 mm 2 mps 767 mmHg 62%
    19:00 +13°C° 0 mm 2 mps 767 mmHg 63%
    20:00 +13°C° 0 mm 2 mps 767 mmHg 65%
    21:00 +12°C° 0 mm 2 mps 767 mmHg 66%
    22:00 +12°C° 0 mm 2 mps 767 mmHg 66%
    23:00 +11°C° 0 mm 3 mps 766 mmHg 66%

    23 September, Sunday

    Time Temperature Precipitation Wind Pressure Humidity
    00:00 +12°C° 0 mm 3 mps 766 mmHg 66%
    01:00 +11°C° 0.5 mm 3 mps 765 mmHg 71%
    02:00 +11°C° 0.5 mm 4 mps 764 mmHg 76%
    03:00 +11°C° 0.5 mm 4 mps 763 mmHg 81%
    04:00 +10°C° 0.5 mm 5 mps 762 mmHg 81%
    05:00 +10°C° 0.5 mm 6 mps 761 mmHg 80%
    06:00 +11°C° 0.5 mm 7 mps 759 mmHg 80%
    07:00 +11°C° 0.4 mm 8 mps 758 mmHg 76%
    08:00 +12°C° 0.4 mm 9 mps 756 mmHg 72%
    09:00 +13°C° 0.4 mm 10 mps 754 mmHg 69%
    10:00 +16°C° 1 mm 10 mps 753 mmHg 69%
    11:00 +17°C° 1 mm 11 mps 751 mmHg 69%
    12:00 +19°C° 1 mm 11 mps 749 mmHg 69%
    13:00 +21°C° 0.5 mm 12 mps 748 mmHg 70%
    14:00 +20°C° 0.5 mm 13 mps 746 mmHg 70%
    15:00 +22°C° 0.5 mm 14 mps 745 mmHg 70%
    16:00 +19°C° 0.3 mm 14 mps 744 mmHg 69%
    17:00 +15°C° 0.3 mm 15 mps 743 mmHg 67%
    18:00 +13°C° 0.3 mm 15 mps 743 mmHg 65%
    19:00 +13°C° 0.3 mm 15 mps 743 mmHg 68%
    20:00 +13°C° 0.3 mm 14 mps 743 mmHg 71%
    21:00 +13°C° 0.3 mm 14 mps 743 mmHg 74%
    22:00 +13°C° 0.4 mm 15 mps 745 mmHg 74%
    23:00 +13°C° 0.4 mm 16 mps 748 mmHg 74%

    24 September, Monday

    Time Temperature Precipitation Wind Pressure Humidity
    00:00 +14°C° 0.4 mm 16 mps 750 mmHg 74%
    01:00 +13°C° 0.2 mm 15 mps 754 mmHg 71%
    02:00 +13°C° 0.2 mm 13 mps 757 mmHg 68%
    03:00 +12°C° 0.2 mm 11 mps 760 mmHg 66%
    04:00 +12°C° 0.1 mm 10 mps 762 mmHg 65%
    05:00 +12°C° 0.1 mm 9 mps 764 mmHg 65%
    06:00 +11°C° 0.1 mm 9 mps 766 mmHg 64%
    07:00 +12°C° 0.1 mm 9 mps 767 mmHg 62%
    08:00 +12°C° 0.1 mm 9 mps 768 mmHg 59%
    09:00 +13°C° 0.1 mm 9 mps 770 mmHg 57%
    10:00 +13°C° 0.1 mm 8 mps 771 mmHg 57%
    11:00 +13°C° 0.1 mm 8 mps 772 mmHg 58%
    12:00 +13°C° 0.1 mm 8 mps 772 mmHg 58%
    13:00 +13°C° 0.1 mm 8 mps 773 mmHg 57%
    14:00 +13°C° 0.1 mm 8 mps 773 mmHg 56%
    15:00 +14°C° 0.1 mm 7 mps 774 mmHg 55%
    16:00 +13°C° 0 mm 6 mps 774 mmHg 58%
    17:00 +12°C° 0 mm 5 mps 774 mmHg 60%
    18:00 +12°C° 0 mm 4 mps 775 mmHg 62%
    19:00 +11°C° 0 mm 3 mps 775 mmHg 64%
    20:00 +11°C° 0 mm 3 mps 776 mmHg 65%
    21:00 +12°C° 0 mm 2 mps 776 mmHg 67%
    22:00 +12°C° 0 mm 2 mps 777 mmHg 69%
    23:00 +10°C° 0 mm 2 mps 777 mmHg 71%
    Show more